Location: *
(46.4000°N, 12.6667°E)
Time: 14:06:46
(UTC+00:00)

ISS - Pass Details

Date: 07 March 2021
Orbit: 418 x 422 km, 51.6° (Epoch: 17 April)

Event Time Altitude Azimuth Distance (km) Brightness Sun altitude
Exits shadow 03:55:12 32° 329° (NNW) 739 -2.7 -18.4°
Maximum altitude 03:56:14 44° 16° (NNE) 594 -2.9 -18.2°
Drops below altitude 10° 03:59:28 10° 90° (E) 1,498 0.3 -17.7°
Sets 04:01:37 0° 97° (E) 2,360 1.5 -17.3°
